Regional Weather Roundup
Issued by NWS Pendleton, OR

Home | Current Version | Previous Version | Text Only | Print | Product List | Glossary On
Versions: 1 2 3 4 5 6 7 8 9 10 11 12 13 14 15 16 17 18 19 20 21 22 23 24 25 26 27 28 29 30 31 32 33 34 35 36 37 38 39 40 41 42 43 44 45 46 47 48 49 50
000
ASUS46 KPDT 241925
RWRPDT
PENDLETON REGIONAL WEATHER ROUNDUP
NATIONAL WEATHER SERVICE PENDLETON OREGON
1100 AM PST FRI NOV 24 2017

NOTE: FAIR INDICATES FEW OR NO CLOUDS BELOW 12,000 FEET WITH NO
SIGNIFICANT WEATHER AND/OR OBSTRUCTIONS TO VISIBILITY.

# INDICATES UNOFFICIAL STATION AND DATA

WAZ520-242010-
EAST SLOPES OF WASHINGTON CASCADES

CITY            SKY/WX      TMP DP  RH  WIND    PRES   REMARKS
#BULLFROG       N/A         40  37  89  W1      N/A
#CLE ELUM HS    N/A         41  34  76  CALM    30.03R
#CLE ELUM LAKE  N/A         39  34  82  CALM    30.09S
#EASTON DOT     N/A         39  37  92  CALM    N/A
#ELK HTS DOT    N/A         42  41  96  W2      N/A
#GLENWOOD       N/A         47  40  76  SW6     30.10R
#NELSON 3SW     N/A         36  35  96  CALM    30.31R
#NILE           N/A         39  38  96  CALM    29.36F
#TROUT LAKE 1NE N/A         46  40  79  NW7     30.13R
#TROUT LAKE 1E  N/A         45  39  79  CALM    30.14R
$$

WAZ521-242010-
SIMCOE HIGHLANDS

CITY            SKY/WX      TMP DP  RH  WIND    PRES   REMARKS
#BICKLETON HS   N/A         N/A N/A N/A SW9     30.06F
#CENTERVILLE 1SWN/A         44  38  79  W10     30.11R
#GOLDENDALE 4W  N/A         48  28  46  W14     30.15R WCI 42
#GOODNOE HILLS  N/A         48  41  77  SW10    N/A
#LYLE 6NE       N/A         45  43  93  SW5     30.15R
#PITT 4SE       N/A         41  39  93  W5      30.16R
$$

WAZ026-242010-
KITTITAS VALLEY

CITY            SKY/WX      TMP DP  RH  WIND    PRES   REMARKS
ELLENSBURG AP   LGT RAIN    47  33  58  NW15    30.06S WCI 41
#ELLENSBURG CWU N/A         45  35  68  W7      30.04R
#ELLENSBURG 3NE N/A         44  34  68  N8      28.13R
#ELLENSBURG 1E  N/A         45  35  68  W2      30.15S
#KITTITAS 3S    N/A         47  38  71  W7      30.09S
#MANASTASH RDG  N/A         42  42  100 W5      N/A
#RYEGRASS DOT   N/A         43  29  57  S16     N/A    WCI 35
$$

WAZ027-242010-
YAKIMA VALLEY

CITY            SKY/WX      TMP DP  RH  WIND    PRES   REMARKS
SUNNYSIDE AP    SUNNY       51  35  54  SE5     30.10S
YAKIMA AIRPORT  PTCLDY      48  35  60  SE6     30.09F
YAKIMA-VAGABOND MOSUNNY     47  35  63  SW3     30.06F
#DONALD 2NE     N/A         53  12  19  SE1     28.94R
#GRANDVIEW      N/A         53  35  50  CALM    30.04S
#MABTON         N/A         52  41  66  CALM    30.09S
#MOXEE 2E       N/A         43  N/A N/A N1      29.93R
#NACHES 2SW     N/A         45  36  70  W1      30.06S
#OUTLOOK DOT    N/A         52  36  54  N1      30.07R
#PARKER DOT     N/A         51  35  54  E1      30.08S
#TERRACE HTS    N/A         48  38  68  CALM    30.07S
#TOPPENISH      N/A         50  38  63  CALM    30.02R
#I82 S UMTANUM RN/A         47  29  49  S1      N/A
#UNION GAP DOT  N/A         47  35  63  CALM    30.12F
#W YAKIMA       N/A         47  37  68  E2      30.10S
#WHITE SWAN 5E  N/A         49  39  68  CALM    30.09S
#WILEY CITY 3W  N/A         46  32  58  CALM    30.04S
#ZILLAH DOT     N/A         51  36  56  E5      N/A
$$

WAZ028-242010-
LOWER COLUMBIA BASIN...WASHINGTON

CITY            SKY/WX      TMP DP  RH  WIND    PRES   REMARKS
PASCO           SUNNY       53  39  59  SW15    30.13R
PROSSER AWOS    N/A         54  37  52  CALM    30.13S
RICHLAND AWOS   SUNNY       54  41  61  S16     30.12R
#BENTON CITY    N/A         52  41  66  SW1     30.02S
#CONNELL 5N     N/A         48  41  77  SW5     30.12R
#CONNELL 5NW    N/A         48  42  80  SW7     30.07R
#ELTOPIA 6NW    N/A         49  40  71  CALM    29.08R
#KAHLOTUS       N/A         48  40  74  W15G26  30.10S WCI 42
#KENNEWICK 3S   N/A         50  41  71  S8      30.12R
#PATERSON       N/A         50  40  68  W8      30.12R
#PROSSER DOT    N/A         54  38  55  CALM    30.11S
#SAGEMOOR 2W    N/A         49  41  74  SW13    29.98R WCI 44
#TOUCHET 2S     N/A         53  40  61  SW14    30.11F
#WEST PASCO     N/A         55  41  59  CALM    30.13R
$$

WAZ029-242010-
FOOTHILLS OF THE BLUES...WASHINGTON

CITY            SKY/WX      TMP DP  RH  WIND    PRES   REMARKS
WALLA WALLA AP  SUNNY       51  36  56  S16     30.13S
#CLYDE 6NW      N/A         47  38  71  SW15    30.11S WCI 41
#DAYTON SCHOOL  N/A         48  31  51  SW7     30.12F
#DELANEY DOT    N/A         52  36  54  S13     30.14S
#LOWDEN 2SE     N/A         53  39  59  SW12    30.11S
#PLEASANT VIEW 1N/A         47  40  76  S15G24  30.15R WCI 41
#PRESCOTT       N/A         54  41  61  CALM    30.12S
#WHITMAN COLLEGEN/A         52  36  54  SW9     30.18F
#WAITSBURG 5S   N/A         47  38  71  S15     30.22S WCI 41
#WAITSBURG 6SSE N/A         49  35  58  S9      30.13F
#WAITSBURG 8N   N/A         47  N/A N/A S14     30.12S WCI 41
#WALLA WALLA 5E N/A         51  40  66  SW14    N/A
#WHITMAN MISSIONN/A         53  39  59  SW7     30.15F
$$

WAZ030-242010-
BLUE MOUNTAINS...WASHINGTON

CITY            SKY/WX      TMP DP  RH  WIND    PRES   REMARKS
#DIXIE 5SE      N/A         40  33  76  SW9     30.02F
$$

ORZ009-041-WAZ024-242010-
COLUMBIA RIVER GORGE

CITY            SKY/WX      TMP DP  RH  WIND    PRES   REMARKS
HOOD RIVER AP   MOCLDY      50  43  77  NW8     30.15R
THE DALLES AP   MOSUNNY     52  41  66  VRB3    30.15R
#ARLINGTON AIRPON/A         50  42  74  W7      30.15S
#ARLINGTON HS   N/A         52  40  63  W5      30.06S
#CELILO DOT     N/A         47  37  68  CALM    N/A
#LYLE           N/A         51  44  77  SW8     30.16S
#MARYHILL       N/A         49  40  71  N12     N/A    WCI 44
#MURDOCK        N/A         52  45  77  W9      30.11S
#RUFUS DOT      N/A         51  N/A N/A W1      N/A
#SMITHVILLE     N/A         52  45  77  NW7     30.11S

$$

ORZ510-242010-
NORTH CENTRAL OREGON

CITY            SKY/WX      TMP DP  RH  WIND    PRES   REMARKS
#ANTELOPE       N/A         43  31  62  SW7     30.03R
#CHENOWITH 1W   N/A         42  39  89  W8      N/A
#COW CYN RST AREN/A         42  N/A N/A SW9     N/A
#DUFUR          N/A         48  39  71  E3      30.10S
#DUFUR 9E       N/A         42  36  79  CALM    30.18R
#GRASS VALLEY 1SN/A         46  37  71  W12     30.11S WCI 40
#KENT DOT       N/A         45  26  47  SW12    N/A    WCI 39
#MAUPIN SCHOOL  N/A         52  37  56  SW3     30.18S
#SHANIKO 5WSW   N/A         39  N/A N/A S16     N/A    WCI 30
#SHANIKO 4NW    N/A         40  30  67  SW3     30.09R
#TYGH VALLEY 2NEN/A         51  37  59  N9      30.12R
#WAPANITIA AIRPON/A         47  36  65  W8      30.15R
#WASCO DOT      N/A         50  39  66  W6      N/A
#WASCO 5NE      N/A         47  38  71  W6      30.14R
$$

ORZ511-242010-
CENTRAL OREGON

CITY            SKY/WX      TMP DP  RH  WIND    PRES   REMARKS
BEND AIRPORT    SUNNY       46  28  49  SW12    30.12S WCI 40
PRINEVILLE AP   SUNNY       45  28  51  E7      30.13S
REDMOND AIRPORT SUNNY       47  30  51  S8      30.12S
#ASHWOOD SCHOOL N/A         48  31  51  CALM    30.08R
#BEND 1SW       N/A         42  32  67  SW2     N/A
#BEND-AWBREY    N/A         43  32  65  W2      30.12R
#BEND-KIM LN    N/A         42  31  65  NE3     30.08R
#CULVER         N/A         44  31  60  SE3     30.00R
#CULVER 8W      N/A         48  30  49  W3      30.12R
#LAKE BILLY CHINN/A         46  N/A N/A W3      30.18F
#MADRAS 4S      N/A         46   8  21  SW6     N/A
#POWELL BUTTE   N/A         44  26  49  SW5     30.06R
#PRINEVILLE     N/A         45  34  65  CALM    30.22R
#PRINEVILLE 3N  N/A         46  33  60  E5      30.12S
#WARM SPRINGS   N/A         46  36  68  CALM    30.01F

$$


ORZ509-242010-
EAST SLOPES OF OREGON CASCADES

CITY            SKY/WX      TMP DP  RH  WIND    PRES   REMARKS
SISTERS AWOS    N/A         45  28  51  CALM    N/A
#BLUE BOX PASS  N/A         35  N/A N/A NW2     N/A
#CAMP SHERMAN   N/A         45  36  70  SW2     30.21F
#LA PINE 4NW    N/A         39  31  73  CALM    30.17S
#LAVA BUTTE DOT N/A         37  26  64  S1      N/A
#SISTERS ODOT   N/A         45  27  49  CALM    N/A
#SISTERS 3N     N/A         45  30  55  W3      30.11S
#SUNRIVER       N/A         41  33  73  SE2     30.13S
#TUMALO 3W      N/A         40  30  67  NE3     30.01R
#WANOGA BUTTE D N/A         33  19  56  W6      N/A

$$

ORZ044-242010-
LOWER COLUMBIA BASIN...OREGON

CITY            SKY/WX      TMP DP  RH  WIND    PRES   REMARKS
HERMISTON       SUNNY       54  37  52  SW13    30.13S
#BOARDMAN SCHOOLN/A         53  40  61  SW9     30.14R
#BOARDMAN 8SW   N/A         53  41  64  W12     30.15R
#ECHO 8SW       N/A         53  37  54  W3      30.14S
#I-84 EX 198 DOTN/A         51  33  50  E13     N/A
#IONE SCHOOL    N/A         51  34  52  SW6     30.14F
#UMATILLA       N/A         54  37  52  SW9     30.06F
$$

ORZ507-242010-
NORTHERN FOOTHILLS OF THE BLUES

CITY            SKY/WX      TMP DP  RH  WIND    PRES   REMARKS
PENDLETON AIRPT SUNNY       50  34  54  SW7     30.13F
#ADAMS 3WNW     N/A         48  36  63  W9      30.15S
#ATHENA         N/A         48  34  58  S3      30.17R
#CAYUSE         N/A         50  36  58  SW7     30.12F
#HELIX SCHOOL   N/A         48  37  65  N10     30.14S
#HELIX 3N       N/A         46  36  68  S15     30.09S WCI 40
#HOLDMAN 5SE    N/A         49  38  66  SW10    30.12S
#HOLDMAN 6E     N/A         47  39  74  SW10    29.94R
#M-F GROVE ELEM N/A         52  34  50  S6      30.11S
#M-FREEWATER 5SEN/A         51  36  56  S5      30.13F
#PENDLETON DNTN N/A         54  37  52  SW2     30.10S
#PDT AQUATIC CTRN/A         52  39  61  CALM    30.18S
#PDT SUNRIDGE   N/A         51  36  56  NW2     30.15F
#PENDLETON 6SE  N/A         52  35  52  W3      30.10F
#PENDLETON 7NW  N/A         54  40  59  W6      28.88F
#PILOT ROCK 1S  N/A         51  33  50  CALM    30.14S
#PILOT ROCK     N/A         48  36  63  CALM    30.14F
#TUTUILLA       N/A         51  37  59  SW2     30.19S
#UMAPINE 2E     N/A         53  38  57  SW8     30.11S
#WESTON SCHOOL  N/A         48  32  54  W7      30.08S

$$

ORZ508-242010-
SOUTHERN FOOTHILLS OF THE BLUES

CITY            SKY/WX      TMP DP  RH  WIND    PRES   REMARKS
LEXINGTON       SUNNY       52  36  54  SW13    30.15F
#AJAX           N/A         46  29  51  N9      30.25S
#CONDON 5W      N/A         42  34  73  SW2     30.08R
#HEPPNER EOC    N/A         48  33  56  SW10    30.06S
#HEPPNER 4NE    N/A         46  35  65  W6      30.12R
#LEXINGTON 2SE  N/A         52  36  54  W7      30.09S
#MIKKALO        N/A         49  34  56  W6      30.22R
#OLEX 4N        N/A         49  39  68  W10     30.11S
#RUGGS 5NE      N/A         47  30  51  SW7     30.27S
#RUGGS 2SW      N/A         46  33  60  SW6     30.14S

$$

ORZ502-503-242010-
BLUE MOUNTAINS

CITY            SKY/WX      TMP DP  RH  WIND    PRES   REMARKS
MEACHAM         SUNNY       40  32  73  CALM    30.11S
#BATTLE MTN DOT N/A         37  25  61  S8      N/A
#GRANITE        N/A         33  28  82  CALM    30.15R
#GREENHORN 9SW  N/A         42  36  79  CALM    30.10S
#HARDMAN 10S    N/A         40  30  67  S5      30.24R
#LADD CYN SMT   N/A         43  31  62  SW1     N/A
#LADD CREEK ODOTN/A         40  37  89  CALM    N/A
#LONG CREEK HS  N/A         43  31  62  SE5     30.11F
#N POWDER DOT   N/A         46  31  56  NW1     N/A
#PIKES PEAK     N/A         38  29  70  CALM    27.99S
#TOLLGATE       N/A         31  30  96  SW3     29.93R
#TROY SCHOOL    N/A         50  38  63  CALM    29.98S
#UKIAH          N/A         43  32  65  S2      30.04F
#WESTON 4E      N/A         42  33  70  S6      30.11R
$$

ORZ505-242010-
JOHN DAY BASIN

CITY            SKY/WX      TMP DP  RH  WIND    PRES   REMARKS
JOHN DAY        SUNNY       44  37  76  E6      30.12F
#ANTELOPE 9ESE  N/A         50  34  54  CALM    N/A
#DAYVILLE SCHOOLN/A         46  35  65  E2      30.10S
#MITCHELL 8NW   N/A         45  30  55  CALM    30.18R
#MONUMENT HS    N/A         47  33  58  CALM    30.10S
#MT. VERNON 5SE N/A         42  30  62  CALM    30.05F
#WINLOCK        N/A         49  30  48  N5      30.08S
$$

ORZ506-242010-
OCHOCO AND JOHN DAY HIGHLANDS

CITY            SKY/WX      TMP DP  RH  WIND    PRES   REMARKS
#HORSE RIDGE DO N/A         42  22  45  SE8     N/A
#PAULINA ODOT   N/A         42  28  57  SE1     N/A
#PINE MTN OBS   N/A         30  24  78  S8      N/A
#PRAIRIE CITY   N/A         45  39  79  CALM    30.27F
#SENECA         N/A         37  N/A N/A N1      N/A
#SENECA 9NW     N/A         36  29  75  CALM    30.08S
$$

ORZ049-242010-
GRANDE RONDE VALLEY

CITY            SKY/WX      TMP DP  RH  WIND    PRES   REMARKS
LA GRANDE       SUNNY       45  32  60  CALM    30.15S
#COVE SCHOOL    N/A         47  30  51  CALM    30.14S
#COVE 6NW       N/A         47  33  58  CALM    30.14S
#ELGIN 3N       N/A         48  33  56  S6      30.54F
#ELGIN 1E       N/A         47  34  60  CALM    N/A
#IMBLER SCHOOL  N/A         45  33  63  E5      30.09F
#ISLAND CITY 4N N/A         48  47  96  CALM    30.18R
#LADD CYN DOT   N/A         46  36  68  CALM    N/A
#UNION 1S       N/A         48  34  58  CALM    30.12F
$$

ORZ050-242010-
WALLOWA COUNTY

CITY            SKY/WX      TMP DP  RH  WIND    PRES   REMARKS
JOSEPH AIRPORT  SUNNY       41  30  65  N5      30.11F
#ENTERPRISE HS  N/A         42  34  73  CALM    29.97S
#IMNAHA SCHOOL  N/A         50  38  63  N2      30.12F
#IMNAHA 10S     N/A         40  35  82  SW2     30.10S
#JOSEPH         N/A         40  28  62  NE2     30.53S
#JOSEPH 3N      N/A         39  31  73  CALM    30.12S
#JOSEPH 3W      N/A         36  34  92  CALM    30.53S
#LOSTINE        N/A         41  33  73  CALM    29.93R
#LOSTINE 3SE    N/A         42  34  73  E2      30.17S
#MT HOWARD 8000 N/A         28  19  68  CALM    30.01S
#PROMISE 1S     N/A         40  32  73  S2      30.22S



$$



USA.gov is the U.S. government's official web portal to all federal, state and local government web resources and services.